Printer-friendly version

IAU Minor Planet Center

Minor Planet Center

MPEC 2002-E44 : 2002 EL6

The following Minor Planet Electronic Circular may be linked-to from your own Web pages, but must not otherwise be redistributed electronically.


Read MPEC 2002-E43 Read MPEC 2002-E45


M.P.E.C. 2002-E44                                Issued 2002 Mar. 13, 19:28 UT

     The Minor Planet Electronic Circulars contain information on unusual
         minor planets and routine data on comets.  They are published
   on behalf of Commission 20 of the International Astronomical Union by the
          Minor Planet Center, Smithsonian Astrophysical Observatory,
                          Cambridge, MA 02138, U.S.A.

             Prepared using the Tamkin Foundation Computer Network

                              MPC@CFA.HARVARD.EDU
          URL http://cfa-www.harvard.edu/iau/mpc.html  ISSN 1523-6714

                                   2002 EL6

Observations:
     K02E06L* C2002 03 10.13090 14 23 40.95 +10 21 48.2          18.9 R      113
     K02E06L  C2002 03 10.13417 14 23 41.24 +10 21 50.3          18.8 R      113
     K02E06L  C2002 03 10.13729 14 23 41.60 +10 21 52.9          19.1 R      113
     K02E06L  C2002 03 10.14056 14 23 41.86 +10 21 54.4          18.6 R      113
     K02E06L  C2002 03 10.92956 14 24 57.82 +10 30 36.1          18.2 R      113
     K02E06L  C2002 03 10.93229 14 24 58.10 +10 30 37.5          18.3 R      113
     K02E06L  C2002 03 10.93501 14 24 58.23 +10 30 39.6          18.4 R      113
     K02E06L 7C2002 03 11.39071 14 25 41.55 +10 35 51.9                      696
     K02E06L 7C2002 03 11.39667 14 25 42.09 +10 35 55.8          18.7 R      696
     K02E06L  C2002 03 12.03917 14 26 43.62 +10 43 13.1          18.3 R      046
     K02E06L  C2002 03 12.04065 14 26 43.74 +10 43 13.8                      046
     K02E06L  C2002 03 12.04231 14 26 43.94 +10 43 15.1          18.2 R      046
     K02E06L  C2002 03 12.04360 14 26 44.03 +10 43 16.3                      046
     K02E06L  C2002 03 12.04502 14 26 44.18 +10 43 17.2          18.4 R      046
     K02E06L  C2002 03 12.04803 14 26 44.44 +10 43 19.0                      557
     K02E06L  C2002 03 12.05354 14 26 44.93 +10 43 23.0                      557
     K02E06L  C2002 03 12.05571 14 26 45.29 +10 43 24.2          18.9 R      966
     K02E06L  C2002 03 12.05601 14 26 45.17 +10 43 24.7          19.0 V      557
     K02E06L  C2002 03 12.06580 14 26 46.28 +10 43 30.5          18.7 R      966
     K02E06L  C2002 03 12.07102 14 26 46.58 +10 43 36.7                      118
     K02E06L  C2002 03 12.07250 14 26 46.68 +10 43 36.4                      118
     K02E06L  C2002 03 12.07766 14 26 47.09 +10 43 40.3                      118
     K02E06L  C2002 03 12.08079 14 26 47.43 +10 43 42.0                      118
     K02E06L  C2002 03 12.08323 14 26 47.62 +10 43 44.4          18.0 R      118
     K02E06L  C2002 03 12.32528 14 27 11.22 +10 46 34.3          18.3 R      649
     K02E06L  C2002 03 12.32912 14 27 11.58 +10 46 37.1          18.3 R      649
     K02E06L  C2002 03 12.33296 14 27 11.92 +10 46 39.8          18.2 R      649
     K02E06L  C2002 03 12.45061 14 27 22.90 +10 48 05.3          20.1 R      926
     K02E06L  C2002 03 12.45435 14 27 23.25 +10 48 06.9          19.6 R      926
     K02E06L  C2002 03 12.73218 14 27 50.19 +10 51 20.0                      345
     K02E06L  C2002 03 12.73436 14 27 50.48 +10 51 21.7                      345
     K02E06L  C2002 03 12.73711 14 27 50.65 +10 51 23.2                      345
     K02E06L  C2002 03 12.73942 14 27 50.86 +10 51 25.6                      345
     K02E06L  C2002 03 12.74162 14 27 51.12 +10 51 27.2                      345
     K02E06L  C2002 03 12.74382 14 27 51.22 +10 51 28.0                      345
     K02E06L  C2002 03 12.75260 14 27 51.77 +10 51 50.4          18.2 V      422
     K02E06L  C2002 03 12.75462 14 27 51.95 +10 51 52.6          18.5 V      422
     K02E06L  C2002 03 12.75591 14 27 52.06 +10 51 53.9          18.7 V      422
     K02E06L  C2002 03 12.75848 14 27 52.26 +10 51 55.5          18.5 V      422
     K02E06L  C2002 03 13.11382 14 28 26.69 +10 55 48.8                      118
     K02E06L  C2002 03 13.11696 14 28 26.95 +10 55 51.9                      118
     K02E06L  C2002 03 13.12307 14 28 27.44 +10 55 55.0          18.4 R      118
     K02E06L  C2002 03 13.26572 14 28 42.25 +10 57 41.1          19.5 R      651
     K02E06L  C2002 03 13.26848 14 28 42.48 +10 57 42.9          19.4 R      651
     K02E06L  C2002 03 13.27134 14 28 42.77 +10 57 44.7          19.6 R      651
     K02E06L  C2002 03 13.31295 14 28 46.39 +10 58 13.9          18.9 R      649
     K02E06L  C2002 03 13.32017 14 28 47.12 +10 58 19.1          18.6 R      649
     K02E06L  C2002 03 13.48538 14 29 02.37 +11 00 20.6          19.0 R      926
     K02E06L  C2002 03 13.49056 14 29 02.85 +11 00 25.2          18.7 R      926

Observer details:
046 Klet.  Observers J. Ticha, M. Tichy.  0.57-m f/5.2 reflector + CCD.
113 Volkssternwarte Drebach, Schoenbrunn.  Observer A. Knoefel.  0.50-m
    f/4.0 reflector + CCD.
118 Modra.  Observers A. Galad, A. Pravda, L. Kornos, P. Koleny, S. Gajdos,
    J. Toth, D. Kalmancok.  0.6-m f/5.5 reflector + CCD.
345 Sobaeksan Optical Astronomy Observatory.  Observers S.-G. Kwon, S.-L. Kim.
    0.61-m reflector + CCD.
422 Loomberah.  Observer G. J. Garradd.  0.45-m f/5.4 reflector + CCD.
557 Ondrejov.  Observers P. Pravec, P. Kusnirak.  0.65-m f/3.6 reflector + CCD.
649 Powell Observatory, Louisburg.  Observers K. Smalley, R. Fredrick,
    R. Trentman.  0.75-m Newtonian + CCD.
651 Grasslands Observatory, Tucson.  Observer J. E. McGaha.  0.62-m f/5.1
    reflector + CCD.
696 Whipple Observatory, Mt. Hopkins.  Observer T. B. Spahr.  1.2-m reflector
    + CCD.
926 Tenagra II Observatory.  Observers P. R. Holvorcem, M. Schwartz.  Measurer
    P. R. Holvorcem.  0.5-m f/10 Ritchey-Chretien + CCD.
966 Church Stretton.  Observer S. P. Laurie.  0.35-m f/11 Schmidt-Cassegrain
    + CCD.

Orbital elements:
2002 EL6                                                             PHA 0.036D
Epoch 2002 Mar. 7.0 TT = JDT 2452340.5                  MPC
M 332.61442              (2000.0)            P               Q
n   0.28437364     Peri.  187.43878     +0.03200081     +0.98579069
a   2.2902163      Node    84.49713     -0.90826941     +0.09754278
e   0.5802443      Incl.    9.53589     -0.41716020     -0.13675568
P   3.47           H   18.1           G   0.15
From 49 observations 2002 Mar. 10-13.

Ephemeris:
2002 EL6                 a,e,i = 2.29, 0.58, 10                  q = 0.9613
Date    TT    R. A. (2000) Decl.     Delta      r     Elong.  Phase     V
2002 03 07    14 18.74   +09 49.5    0.656    1.517   132.9    28.6    19.4
2002 03 17    14 34.76   +11 44.9    0.539    1.436   136.9    28.2    18.8
2002 03 27    14 52.12   +14 15.4    0.433    1.356   139.4    28.6    18.2
2002 04 06    15 12.69   +17 24.3    0.340    1.278   139.3    30.7    17.6
2002 04 16    15 40.44   +21 16.5    0.259    1.204   136.2    35.2    17.0
2002 04 26    16 25.29   +25 54.3    0.188    1.134   129.2    43.4    16.4
2002 05 06    17 52.39   +30 27.2    0.132    1.073   116.0    57.6    15.9
2002 05 16    20 32.06   +27 46.6    0.104    1.022    93.4    80.8    16.1
2002 05 26    23 00.53   +13 32.2    0.123    0.986    73.7    99.5    17.1
2002 06 05    00 19.43   +02 56.1    0.172    0.965    68.5   101.9    17.9
2002 06 15    01 03.40   -02 23.6    0.231    0.963    70.3    96.7    18.3
2002 06 25    01 32.49   -05 06.4    0.291    0.979    74.3    89.1    18.5
2002 07 05    01 53.93   -06 37.4    0.347    1.011    79.3    81.0    18.7
2002 07 15    02 09.99   -07 41.1    0.395    1.059    85.1    73.0    18.8
2002 07 25    02 21.19   -08 40.2    0.435    1.118    91.8    65.3    18.8
2002 08 04    02 27.45   -09 46.6    0.467    1.185    99.5    57.6    18.9
2002 08 14    02 28.22   -11 05.6    0.492    1.258   108.4    49.8    18.9
2002 08 24    02 23.13   -12 34.1    0.516    1.336   118.4    41.7    18.9
2002 09 03    02 12.25   -14 03.1    0.541    1.415   129.4    33.4    18.9
2002 09 13    01 56.45   -15 18.0    0.575    1.496   140.7    25.2    18.9
2002 09 23    01 37.82   -16 02.4    0.623    1.577   150.9    18.0    19.0
2002 10 03    01 19.06   -16 06.8    0.689    1.657   157.3    13.5    19.2
2002 10 13    01 02.69   -15 31.4    0.775    1.737   156.8    13.1    19.5
2002 10 23    00 50.30   -14 23.7    0.882    1.816   150.5    15.7    20.0
2002 11 02    00 42.33   -12 54.4    1.009    1.892   142.1    18.8    20.5
2002 11 12    00 38.54   -11 11.9    1.153    1.968   133.3    21.5    20.9
2002 11 22    00 38.37   -09 22.4    1.311    2.041   124.6    23.5    21.3
2002 12 02    00 41.13   -07 29.8    1.482    2.113   116.3    24.7    21.7
2002 12 12    00 46.25   -05 36.3    1.662    2.183   108.4    25.3    22.1

Timothy B. Spahr             (C) Copyright 2002 MPC           M.P.E.C. 2002-E44

Read MPEC 2002-E43 Read MPEC 2002-E45


Our Web policy. Index to the CBAT/MPC/ICQ pages.


Valid HTML 4.01!